Location: Columbus
(29.5618°N, 96.6770°W)
Time: 02:12:58
(UTC-06:00)

Iridium 59 - Visible Passes

Search period start: 04 December 2016 00:00
Search period end: 14 December 2016 00:00
Orbit: 776 x 779 km, 86.4° (Epoch: 03 December)

Date Brightness Start Highest point End Pass type
(mag) Time Alt. Az. Time Alt. Az. Time Alt. Az.
05 Dec 7.8 06:36:41 10° NE 06:39:32 15° E 06:42:22 10° ESE visible
07 Dec 7.0 19:58:20 10° S 19:59:44 19° S 19:59:44 19° S visible
08 Dec 7.6 06:35:44 10° NNE 06:39:46 22° E 06:43:46 10° SE visible
08 Dec 6.3 19:25:00 10° SSE 19:27:19 26° SSE 19:27:19 26° SSE visible
09 Dec 8.2 06:04:44 10° ENE 06:05:59 11° ENE 06:07:15 10° E visible
09 Dec 6.3 18:52:21 10° SE 18:54:55 23° ESE 18:54:55 23° ESE visible
09 Dec 7.3 20:33:08 10° SW 20:35:28 20° WSW 20:35:28 20° WSW visible
10 Dec 6.7 18:20:54 10° ESE 18:22:35 13° E 18:22:35 13° E visible
10 Dec 5.9 19:58:39 10° SSW 20:03:09 46° WSW 20:03:09 46° WSW visible
11 Dec 6.9 06:35:15 10° NNE 06:39:57 34° E 06:44:38 10° SSE visible
11 Dec 4.9 19:24:54 10° S 19:30:06 85° E 19:30:51 66° NNE visible
12 Dec 7.8 06:02:54 10° NE 06:06:15 17° E 06:09:35 10° ESE visible
12 Dec 5.3 18:51:49 10° SSE 18:56:41 42° E 18:58:37 30° NE visible
12 Dec 7.6 20:34:26 10° WSW 20:37:30 16° W 20:39:11 14° WNW visible
13 Dec 6.2 18:19:32 10° SE 18:23:21 21° E 18:26:27 13° NE visible
13 Dec 6.7 19:59:13 10° SW 20:03:48 31° W 20:07:00 17° NNW visible
